Dewpoint
14 13 12 12 12 12 12 12 11 11 10 11 12 10 8 9 9 10 11 10 10 9 9 8 7 6 6 6 6 6 6 5 4 2 1 -1 -2 -4 -0 6 10 14 9
13 14 12 11 12 12 12 12 12 11 11 11 11 10 11 11 11 12 11 11 11 10 9 7 7 7 8 8 8 7 6 5 6 5 5 7 10 1 -4 2 9 13 8
12 13 11 10 12 12 12 12 12 11 11 11 11 11 11 12 12 12 12 11 11 9 7 7 7 10 10 9 9 8 8 7 7 7 7 10 12 9 -1 -1 3 5 4
12 13 13 10 9 9 9 10 10 11 11 11 10 10 10 10 11 10 10 9 8 8 7 7 8 8 9 10 9 9 9 9 9 8 10 11 10 10 7 1 2 3 5
11 13 8 6 5 3 2 4 6 6 6 8 7 8 9 10 10 10 9 9 9 9 9 9 10 10 11 9 9 8 8 10 10 9 10 11 11 12 10 4 6 3 5
10 8 1 -1 -3 -3 -4 -3 -3 -2 -2 -1 -0 2 5 6 6 8 9 10 11 11 10 11 10 9 8 8 8 8 9 9 10 10 11 11 11 10 10 7 6 7 8
7 -0 -4 -4 -3 -3 -2 -2 -2 -1 0 1 2 2 2 2 2 2 1 1 2 2 2 3 3 3 4 4 6 8 9 9 9 10 9 9 11 11 8 8 8 7 8
5 7 -3 -3 -3 -3 -3 -3 -2 -1 1 3 3 3 3 3 2 2 2 2 3 3 3 3 4 4 3 3 3 3 3 3 4 9 8 9 10 9 8 9 9 8 7
5 7 7 2 -3 -4 -3 -3 -3 -2 3 4 4 3 2 2 1 2 2 3 3 3 1 -2 -2 2 5 6 7 7 6 6 6 8 8 9 9 9 9 9 9 8 8
6 7 8 9 9 10 5 -2 -3 -4 -0 3 3 1 1 2 2 1 3 4 1 -2 -6 -7 -7 -5 -3 -2 -1 -4 -5 -5 6 7 7 8 9 7 6 7 8 8 8
7 8 9 8 10 9 8 6 3 -1 -1 2 2 -1 4 10 10 10 7 2 1 -0 -1 -4 -5 -6 -5 -2 0 -5 -8 4 6 6 6 7 8 7 7 6 5 4 5
7 8 9 10 10 9 7 8 9 9 9 10 10 10 9 10 9 5 7 7 6 5 1 0 -1 -4 -2 5 4 3 3 5 4 4 5 5 0 -6 -2 4 6 6 7
7 7 7 10 10 9 8 7 7 8 8 9 10 10 10 10 10 9 9 9 9 8 9 8 7 6 5 5 4 5 5 5 3 3 4 4 -3 -9 -7 -4 -1 3 5
6 6 8 10 9 6 6 5 6 7 8 8 9 10 10 9 9 9 8 8 7 7 8 7 7 7 8 7 5 1 0 2 2 3 3 3 -4 -11 -10 -7 -6 -2 3
4 5 7 10 11 7 1 7 7 8 8 9 9 9 9 8 8 8 8 7 7 6 6 6 6 6 6 6 5 4 3 2 3 3 0 -0 -8 -12 -11 -10 -6 -1 2
4 5 7 10 11 7 6 7 7 8 8 8 8 8 7 7 7 7 6 6 5 4 5 5 4 5 5 4 4 3 2 -0 -1 2 -1 -2 -4 -10 -10 -9 -9 -9 -4
4 5 7 10 11 8 7 7 6 6 5 6 5 6 6 3 6 5 6 5 5 4 5 5 5 5 5 5 3 2 1 1 1 1 -1 -2 -0 -5 -8 -8 -8 -9 -9
4 5 7 9 10 10 6 6 5 5 5 4 4 4 5 2 -1 -0 5 5 5 5 5 5 5 5 4 4 3 3 1 -0 0 1 1 -0 -1 -0 -2 -6 -7 -7 -8
5 6 7 8 10 9 7 6 6 6 5 4 4 4 4 5 5 4 5 5 5 5 5 5 4 4 4 4 4 2 1 0 -0 -0 0 0 -0 -1 -1 -1 -3 -7 -8
5 7 8 8 9 9 8 6 4 4 4 3 2 2 3 3 4 4 5 5 5 5 4 4 4 4 4 4 3 3 1 0 -0 0 0 -0 -0 0 -0 -1 -2 -5 -8
4 5 7 8 8 7 6 5 3 3 2 2 1 2 4 4 4 4 4 3 3 3 3 3 4 5 5 5 4 5 4 3 1 0 0 0 -0 -0 1 0 -1 -1 -2
4 4 4 4 4 3 2 2 2 2 2 3 3 3 3 3 2 2 2 2 1 2 1 2 3 4 4 4 4 4 4 3 2 1 1 1 0 -0 -0 0 -0 -0 -2
4 3 3 3 3 3 0 2 2 2 2 2 2 3 3 3 2 2 1 1 1 1 1 1 1 2 3 2 3 3 4 3 2 1 1 1 1 1 0 -1 -1 0 -1
4 4 3 3 3 3 1 3 4 4 3 3 4 3 3 2 1 -0 -1 -1 0 2 1 1 0 1 2 2 2 1 2 3 4 4 2 2 1 2 1 0 -1 -0 -1
4 4 4 3 3 3 3 2 4 4 3 1 1 1 -0 -2 -2 -2 -2 -2 -0 1 1 2 2 2 2 2 1 3 3 3 3 3 4 3 2 2 2 1 0 -1 -2
4 4 4 3 2 2 3 3 2 2 1 -0 -0 -1 -2 -1 -2 -2 -2 -1 1 1 1 1 2 2 1 1 1 1 2 2 1 1 2 2 2 3 2 2 2 0 -2
Wind_Speed
8 4 6 6 6 6 8 7 7 5 4 3 5 4 4 3 3 2 1 1 1 3 1 1 1 2 3 3 4 5 6 6 6 5 4 5 6 5 2 0 2 1 1
8 7 6 7 6 6 6 7 7 6 5 5 4 4 5 4 4 4 3 4 3 3 2 2 2 4 6 7 9 9 9 9 7 5 4 5 7 5 3 3 4 6 2
11 8 7 8 8 8 7 7 6 5 6 6 5 5 4 4 4 5 6 6 5 4 5 4 5 7 11 13 13 13 12 11 9 7 3 6 5 12 6 5 6 8 6
13 11 8 9 8 9 8 7 5 4 2 2 3 3 4 4 6 7 9 8 7 7 8 9 12 15 17 16 14 13 14 13 11 10 3 3 8 12 10 6 7 7 6
13 9 11 10 10 10 8 7 5 4 2 2 2 3 4 5 6 7 9 9 10 12 13 16 18 16 15 14 13 13 14 13 11 7 7 10 8 8 12 8 6 8 7
12 10 13 13 12 10 8 6 4 4 3 2 1 1 2 3 5 6 8 9 10 12 13 14 13 13 12 13 13 13 14 14 13 9 13 11 11 17 14 12 10 9 7
13 13 14 13 11 8 7 5 5 4 5 4 3 3 3 4 4 5 6 7 7 7 8 10 11 12 12 12 13 13 13 13 12 9 15 13 15 13 14 13 13 12 11
13 11 12 10 8 7 5 5 5 5 5 4 3 2 3 3 4 4 5 5 6 6 6 8 9 10 10 10 10 10 11 11 8 9 11 12 16 16 14 14 15 15 14
12 10 8 6 6 5 4 5 6 5 3 4 3 3 3 4 5 5 6 6 6 7 7 8 8 9 9 9 9 8 8 7 4 6 8 15 15 13 13 15 14 15 15
10 9 8 6 4 3 5 5 4 5 5 5 4 4 5 6 8 7 6 7 9 9 8 9 9 10 10 9 10 9 9 7 3 8 8 15 16 15 13 13 14 12 15
9 9 7 5 4 2 2 7 7 5 7 7 8 7 8 6 7 11 11 9 10 11 12 12 11 12 12 13 12 11 10 3 9 7 11 17 19 16 14 14 14 15 13
11 8 6 5 2 2 1 1 0 1 1 1 1 3 4 4 6 7 13 15 14 13 13 13 13 13 11 7 14 16 9 10 9 9 12 19 16 14 15 16 16 15 16
10 9 7 5 3 3 1 1 1 2 2 3 3 2 4 6 6 9 10 14 13 17 11 14 15 11 10 10 9 11 11 11 10 11 16 20 16 13 13 13 15 15 15
11 9 8 6 3 2 2 2 2 2 3 3 4 6 5 6 7 7 8 10 11 10 12 12 12 13 14 12 14 15 14 13 11 12 17 20 18 14 14 14 14 15 16
10 10 8 7 5 2 2 2 1 2 3 5 4 5 4 4 6 7 9 9 10 11 12 13 13 14 15 15 15 14 14 14 14 13 13 20 18 16 14 13 14 14 15
11 10 9 8 7 5 2 3 2 3 2 3 4 4 5 5 6 7 9 10 10 12 13 14 15 15 16 16 17 17 16 15 14 15 13 17 17 16 15 14 14 14 15
12 11 10 9 8 7 4 4 3 3 4 4 4 5 4 5 6 8 9 11 11 13 15 16 17 17 18 17 18 18 18 17 15 17 16 14 18 16 17 17 15 15 16
10 10 9 9 9 8 6 5 4 5 4 5 5 4 6 8 10 12 11 13 14 15 16 17 19 20 21 21 21 20 19 20 18 18 18 16 17 15 17 19 19 17 17
9 10 10 10 10 8 7 6 7 6 5 5 6 7 9 10 11 13 14 16 17 17 19 20 22 23 24 25 24 24 23 23 22 21 21 21 22 20 18 20 19 19 19
5 7 7 8 8 8 7 7 6 7 7 8 9 9 11 11 11 12 14 16 18 20 23 25 27 28 29 30 31 30 30 28 27 26 25 24 23 23 23 22 25 24 22
2 1 1 2 6 3 5 6 7 7 8 9 10 12 11 11 12 16 16 18 22 23 24 26 28 29 31 30 33 33 35 33 34 33 30 28 27 26 26 23 23 16 19
9 8 6 4 3 2 2 3 6 8 7 8 6 9 12 16 27 27 22 22 21 22 24 24 25 29 31 30 32 33 36 35 34 38 38 34 34 31 29 27 25 24 21
12 11 8 7 6 4 4 4 5 7 8 11 14 20 19 26 23 21 21 22 22 22 23 25 25 27 30 32 30 32 30 34 31 32 33 37 31 33 34 31 31 27 27
10 9 7 6 5 6 6 5 8 10 15 18 19 20 18 18 19 20 21 20 22 22 24 24 23 26 26 31 30 31 34 37 38 37 39 29 35 33 29 34 30 29 26
8 7 6 6 7 8 10 13 12 13 15 16 16 17 18 17 18 20 20 22 24 24 23 22 23 23 22 25 27 27 31 34 26 24 25 30 31 28 27 30 32 28 24
7 7 8 9 10 11 12 12 13 13 15 16 17 18 17 20 21 22 23 23 23 21 20 19 19 17 21 19 16 18 22 23 24 21 19 24 26 26 30 32 26 25 23
Wind_Direction
166 209 131 102 89 84 81 94 108 118 116 166 181 175 181 206 216 247 257 253 281 285 324 259 319 301 305 312 306 303 303 298 300 310 314 328 325 316 311 315 111 53 321
128 131 119 112 107 104 105 103 110 116 126 136 159 196 213 232 242 256 253 252 260 251 269 260 288 311 326 327 311 298 290 285 290 295 319 344 334 304 289 253 185 204 259
128 109 139 136 127 117 113 112 116 125 140 157 178 197 207 218 229 247 257 257 271 270 245 258 277 303 307 308 301 290 278 272 272 278 305 1 260 295 286 259 236 248 241
126 126 145 129 113 102 95 97 103 97 127 177 200 214 228 254 261 265 271 283 286 271 266 269 277 294 298 297 286 284 276 275 269 264 276 291 293 291 286 270 258 243 240
121 137 132 118 105 95 93 92 101 121 150 198 211 236 253 260 267 267 269 274 282 278 276 278 287 298 295 294 288 281 280 280 275 276 292 279 265 291 292 273 256 243 229
124 127 127 119 111 110 102 89 64 37 19 348 319 256 251 275 291 291 288 285 281 283 286 290 296 298 298 296 294 291 287 284 279 290 284 286 279 268 277 271 249 244 242
124 128 128 123 114 96 78 59 35 3 349 341 338 346 345 342 328 320 310 308 302 294 287 291 297 301 302 298 294 291 287 285 282 274 281 272 272 268 266 258 251 248 248
126 127 124 112 105 93 70 38 9 353 348 330 330 334 345 348 345 339 323 318 318 315 311 306 305 306 305 304 302 299 295 292 293 296 277 278 273 273 265 257 260 254 254
132 129 127 121 104 85 59 32 13 26 24 29 14 5 1 354 348 341 330 327 325 326 325 320 316 315 312 307 304 302 301 300 295 292 296 269 270 284 267 264 260 252 255
144 150 151 139 130 76 13 30 30 35 34 25 19 9 358 353 349 349 340 346 333 332 329 328 326 323 315 310 307 310 312 322 22 269 274 266 270 276 272 271 264 264 252
157 158 149 149 133 95 75 343 24 14 19 20 19 16 34 28 357 352 317 326 325 323 323 324 323 319 315 314 319 312 313 349 273 282 273 269 272 278 276 273 268 261 259
169 167 174 149 140 85 34 15 328 291 50 46 19 2 20 330 304 312 324 332 331 324 322 319 317 319 325 337 311 320 346 277 291 275 266 266 276 277 276 273 271 273 258
180 178 177 151 129 96 319 340 334 316 296 303 331 336 311 324 321 332 314 329 335 322 335 320 314 321 277 285 277 276 281 287 290 277 269 274 281 277 274 272 269 264 254
185 184 172 170 173 118 89 358 310 318 269 293 274 317 323 327 314 314 312 304 307 305 298 302 295 292 293 288 287 284 280 275 272 268 271 273 280 273 269 267 267 266 265
181 182 190 202 206 218 354 325 332 276 292 259 310 298 320 322 310 315 307 315 308 307 305 302 297 293 288 287 285 279 278 275 270 262 257 269 275 275 268 263 264 265 265
186 194 205 213 213 222 241 290 286 308 290 319 294 282 311 330 312 318 312 309 313 307 302 297 293 289 285 282 278 278 271 263 263 259 255 273 270 266 264 262 259 262 262
199 207 216 220 223 231 241 269 281 274 284 282 287 301 312 333 311 312 309 307 308 305 302 305 302 297 293 291 286 283 274 271 261 252 256 250 273 263 258 258 258 257 259
211 215 227 235 231 232 234 253 264 269 269 276 277 273 296 314 312 309 305 299 296 296 301 299 297 295 291 287 284 279 274 271 264 255 252 247 244 258 261 254 249 250 253
231 242 249 251 247 241 248 251 262 268 285 282 276 297 300 303 302 296 293 293 291 294 292 291 289 285 285 283 281 277 272 265 261 258 253 246 240 233 244 259 250 246 245
256 248 253 251 241 232 233 261 271 280 287 288 291 291 291 295 296 295 294 295 296 294 291 289 283 282 278 278 278 276 272 268 262 256 252 248 244 242 237 242 250 248 247
2 28 93 186 204 234 257 269 273 280 279 286 282 289 312 306 312 306 303 300 298 294 287 280 282 282 278 276 276 273 272 267 260 253 251 250 248 245 239 229 234 241 245
70 75 72 82 54 29 304 285 292 291 293 294 293 302 306 293 308 310 300 303 297 292 289 284 278 278 278 276 273 275 276 273 262 255 248 241 243 240 241 234 227 224 229
69 71 72 67 52 27 40 328 322 316 303 299 284 304 298 300 303 303 304 305 299 295 292 286 282 278 279 277 273 271 273 271 272 268 255 241 244 242 236 237 229 223 223
68 69 62 54 30 9 348 339 327 312 301 297 298 293 303 306 305 308 310 306 300 296 292 289 289 281 279 281 281 273 273 272 274 275 268 269 246 235 241 235 235 227 223
58 48 36 18 353 342 333 323 318 310 308 311 305 304 310 308 308 310 308 303 299 301 295 292 292 288 279 277 280 278 266 263 273 287 284 264 260 249 236 247 231 227 229
19 8 359 348 335 327 325 325 320 318 315 313 311 315 311 311 310 311 310 307 302 302 297 294 281 277 272 274 280 282 280 281 268 277 277 272 264 267 244 240 246 241 232
Height
1535 1536 1538 1540 1541 1542 1542 1542 1541 1543 1544 1547 1548 1548 1550 1550 1551 1551 1551 1552 1552 1553 1550 1553 1552 1551 1549 1548 1549 1549 1550 1550 1550 1550 1549 1548 1549 1549 1548 1548 1548 1547 1548
1537 1537 1539 1540 1541 1542 1544 1544 1544 1546 1546 1547 1548 1551 1551 1551 1550 1552 1552 1552 1553 1552 1552 1551 1552 1550 1550 1549 1550 1549 1549 1550 1550 1551 1550 1549 1549 1550 1548 1548 1548 1548 1548
1540 1539 1540 1540 1541 1543 1544 1545 1546 1547 1548 1548 1549 1549 1550 1550 1552 1551 1552 1551 1552 1553 1552 1550 1552 1549 1551 1549 1549 1549 1549 1550 1549 1551 1550 1549 1549 1549 1548 1547 1548 1548 1548
1541 1543 1539 1541 1543 1544 1545 1546 1548 1550 1551 1551 1550 1551 1551 1550 1551 1551 1553 1551 1552 1553 1552 1551 1551 1550 1550 1550 1550 1548 1549 1548 1549 1550 1550 1551 1552 1548 1548 1546 1548 1547 1548
1542 1542 1541 1543 1545 1545 1547 1548 1549 1549 1551 1552 1549 1551 1551 1551 1551 1553 1552 1551 1551 1552 1551 1550 1548 1549 1549 1549 1548 1547 1547 1547 1548 1549 1552 1551 1552 1546 1546 1546 1547 1546 1548
1543 1541 1543 1545 1545 1547 1548 1549 1550 1550 1551 1552 1550 1551 1551 1551 1551 1552 1551 1550 1551 1550 1549 1548 1547 1548 1548 1547 1547 1546 1546 1546 1548 1550 1549 1549 1549 1545 1544 1545 1546 1547 1546
1545 1544 1544 1546 1547 1549 1549 1550 1550 1551 1551 1551 1552 1551 1551 1550 1550 1550 1550 1550 1550 1550 1549 1548 1547 1547 1547 1546 1546 1545 1545 1546 1546 1548 1547 1547 1545 1544 1545 1545 1545 1545 1545
1546 1548 1548 1549 1550 1549 1550 1551 1551 1550 1550 1552 1551 1550 1550 1550 1550 1550 1550 1549 1549 1549 1548 1547 1546 1546 1545 1545 1545 1545 1544 1544 1545 1547 1547 1546 1543 1544 1543 1542 1543 1543 1543
1548 1549 1551 1550 1550 1550 1551 1551 1552 1550 1552 1551 1551 1551 1551 1551 1550 1550 1549 1548 1548 1548 1547 1547 1547 1545 1545 1544 1544 1544 1543 1543 1544 1546 1545 1541 1542 1541 1540 1540 1540 1541 1542
1550 1552 1551 1552 1554 1554 1550 1550 1551 1552 1551 1551 1552 1552 1551 1551 1551 1550 1549 1549 1549 1547 1547 1547 1545 1544 1544 1544 1543 1542 1542 1542 1541 1544 1544 1540 1540 1539 1538 1537 1538 1539 1539
1552 1552 1554 1554 1555 1555 1556 1551 1552 1552 1552 1552 1553 1553 1553 1555 1554 1552 1549 1549 1547 1547 1547 1545 1544 1543 1543 1542 1541 1541 1540 1540 1542 1543 1540 1537 1537 1536 1535 1535 1535 1536 1536
1549 1551 1554 1553 1554 1554 1555 1554 1554 1554 1555 1556 1556 1555 1557 1555 1553 1552 1549 1548 1547 1546 1545 1543 1543 1542 1542 1543 1542 1540 1539 1541 1539 1540 1537 1534 1534 1532 1532 1531 1532 1532 1533
1549 1552 1554 1554 1554 1553 1555 1555 1555 1556 1556 1556 1555 1554 1555 1554 1554 1554 1552 1548 1547 1546 1546 1544 1543 1542 1543 1540 1540 1539 1539 1538 1538 1537 1533 1532 1531 1530 1529 1529 1529 1529 1530
1548 1552 1553 1554 1553 1552 1554 1555 1555 1555 1556 1556 1555 1553 1554 1554 1553 1553 1552 1551 1550 1549 1547 1546 1544 1542 1538 1537 1536 1534 1534 1533 1534 1534 1530 1528 1527 1526 1526 1526 1525 1526 1526
1547 1551 1552 1554 1552 1553 1553 1554 1553 1554 1555 1554 1554 1553 1552 1552 1551 1551 1550 1549 1547 1546 1545 1544 1542 1540 1538 1536 1534 1532 1531 1530 1529 1528 1528 1524 1523 1522 1522 1522 1522 1522 1522
1547 1549 1552 1552 1552 1552 1553 1553 1553 1553 1554 1553 1553 1552 1550 1549 1549 1548 1548 1547 1546 1545 1544 1541 1539 1537 1535 1534 1531 1529 1526 1525 1525 1524 1524 1520 1519 1519 1518 1518 1518 1518 1519
1546 1548 1550 1551 1551 1550 1552 1552 1553 1553 1552 1553 1552 1550 1549 1547 1547 1546 1546 1545 1545 1543 1540 1538 1537 1534 1533 1531 1529 1526 1523 1520 1519 1519 1518 1518 1515 1515 1514 1514 1514 1514 1514
1545 1547 1549 1550 1550 1550 1551 1551 1552 1552 1551 1551 1550 1550 1548 1546 1545 1544 1544 1543 1542 1539 1537 1536 1534 1533 1531 1528 1525 1522 1521 1518 1516 1513 1513 1513 1513 1511 1509 1510 1509 1510 1510
1545 1546 1547 1549 1549 1550 1550 1550 1550 1549 1548 1549 1549 1549 1548 1546 1543 1541 1541 1539 1537 1535 1533 1531 1529 1527 1525 1523 1520 1517 1514 1512 1511 1509 1507 1506 1506 1506 1506 1502 1504 1505 1505
1543 1543 1545 1546 1547 1548 1547 1547 1548 1548 1548 1548 1548 1547 1544 1542 1540 1538 1537 1534 1532 1530 1528 1526 1523 1521 1519 1517 1513 1511 1509 1507 1504 1503 1502 1500 1499 1498 1499 1498 1497 1498 1499
1541 1543 1543 1545 1544 1545 1547 1547 1547 1547 1546 1545 1544 1541 1540 1540 1538 1535 1531 1529 1528 1524 1522 1519 1516 1513 1511 1510 1506 1502 1499 1498 1496 1495 1494 1494 1494 1492 1490 1492 1492 1493 1491
1540 1542 1543 1544 1543 1544 1545 1544 1542 1542 1542 1542 1541 1539 1538 1535 1532 1530 1526 1523 1520 1517 1514 1511 1509 1507 1504 1504 1499 1497 1491 1488 1487 1484 1482 1482 1483 1485 1485 1483 1485 1487 1489
1542 1543 1543 1543 1543 1542 1542 1543 1542 1542 1541 1541 1538 1536 1533 1529 1526 1522 1520 1516 1513 1511 1508 1506 1504 1501 1497 1494 1494 1492 1487 1481 1480 1479 1474 1472 1475 1476 1478 1478 1476 1477 1480
1543 1544 1544 1544 1544 1542 1541 1541 1540 1540 1538 1537 1533 1529 1526 1524 1522 1518 1514 1511 1508 1504 1501 1499 1498 1495 1493 1487 1486 1484 1481 1477 1473 1469 1470 1469 1466 1467 1469 1473 1472 1470 1472
1544 1544 1544 1544 1543 1541 1539 1537 1536 1535 1533 1530 1528 1524 1521 1519 1516 1513 1510 1506 1502 1498 1495 1492 1490 1488 1485 1482 1479 1474 1469 1466 1467 1465 1460 1462 1463 1462 1461 1467 1465 1464 1466
1545 1544 1543 1542 1542 1540 1538 1536 1534 1531 1529 1527 1524 1520 1517 1514 1511 1508 1503 1499 1495 1492 1490 1487 1483 1480 1478 1476 1473 1469 1465 1463 1462 1459 1457 1456 1456 1455 1454 1458 1459 1459 1460